Erie, PA

12:20 PM EST on November 21, 2019 (GMT -0500)
Erie International

Weather History for KERI - September, 2019

Change the Weather History Date:

Tuesday, September 24, 2019

  Actual Average Record
Temperature  
Mean Temperature 64 °F 61 °F  
Max Temperature 70 °F 69 °F 89 °F (2010)
Min Temperature 58 °F 53 °F 34 °F (1974)
Degree Days  
Heating Degree Days 1 5  
Month to date heating degree days 9 65  
Since 1 July heating degree days 10 83  
Cooling Degree Days 0 1  
Month to date cooling degree days 118 64  
Year to date cooling degree days 808 622  
Growing Degree Days 14 (Base 50)    
Moisture  
Dew Point 53 °F    
Average Humidity 66    
Maximum Humidity 78    
Minimum Humidity 55    
Precipitation  
Precipitation T in 0.16 in 1.55 in (1977)
Month to date precipitation 3.27 3.60  
Year to date precipitation 29.59 29.43  
Snow  
Snow 0.00 in 0.00 in - ()
Month to date snowfall 0.0 0.0  
Since 1 July snowfall 0.0 0.0  
Since 1 September snowfall 0.0 0.0  
Snow Depth 0.00 in    
Sea Level Pressure  
Sea Level Pressure 29.93 in    
Wind  
Wind Speed 10 mph ()    
Max Wind Speed 18 mph    
Max Gust Speed 26 mph    
Visibility 10.0 miles    
Events Rain    
T = Trace of Precipitation, MM = Missing Value Source: Averaged Metar Reports

Daily Weather History Graph

Daily Weather History Graph

Search for Another Location

Airport or City:

Astronomy

Sep. 24, 2019 Rise Set
Actual Time 7:09 AM EDT 7:14 PM EDT
Civil Twilight 6:42 AM EDT 7:42 PM EDT
Nautical Twilight 6:09 AM EDT 8:15 PM EDT
Astronomical Twilight 5:36 AM EDT 8:48 PM EDT
Moon 1:47 AM EDT (9/24) 5:05 PM EDT (9/24)
Length of Visible Light 13h 00m
Length of Day
12h 04m
Waning Crescent, 23% of the Moon is Illuminated
Sep 24
Waning Crescent
Sep 28
New
Oct 5
First Quarter
Oct 13
Full
Oct 21
Last Quarter

Hourly Weather History & Observations

Time (EDT) Temp. Dew Point Humidity Pressure Visibility Wind Dir Wind Speed Gust Speed Precip Events Conditions
12:51 AM 68.0 °F 54.0 °F 61% 29.89 in 10.0 mi WNW 16.1 mph 24.2 mph 0.00 in Rain Light Rain
1:51 AM 66.0 °F 54.0 °F 65% 29.89 in 10.0 mi West 13.8 mph 23.0 mph 0.00 in Rain Light Rain
2:51 AM 66.0 °F 55.0 °F 68% 29.88 in 10.0 mi WNW 13.8 mph 23.0 mph 0.00 in Rain Light Rain
3:51 AM 64.9 °F 54.0 °F 68% 29.89 in 10.0 mi WNW 15.0 mph 24.2 mph 0.00 in Rain Light Rain
4:30 AM 64.9 °F 54.0 °F 68% 29.91 in 10.0 mi WNW 12.7 mph 21.9 mph 0.00 in   Mostly Cloudy
4:51 AM 64.9 °F 55.0 °F 70% 29.90 in 10.0 mi West 10.4 mph - 0.00 in   Mostly Cloudy
5:14 AM 64.9 °F 54.0 °F 68% 29.91 in 10.0 mi WNW 12.7 mph - N/A   Mostly Cloudy
5:51 AM 64.9 °F 54.0 °F 68% 29.91 in 10.0 mi WNW 15.0 mph 23.0 mph N/A   Overcast
6:17 AM 64.9 °F 54.0 °F 68% 29.93 in 10.0 mi NW 12.7 mph 24.2 mph N/A   Overcast
6:59 AM 64.0 °F 54.0 °F 70% 29.94 in 10.0 mi WNW 11.5 mph 19.6 mph N/A   Overcast
7:18 AM 64.0 °F 54.0 °F 70% 29.94 in 10.0 mi NW 11.5 mph - N/A   Mostly Cloudy
7:35 AM 64.0 °F 54.0 °F 70% 29.95 in 10.0 mi NW 11.5 mph - N/A   Mostly Cloudy
7:51 AM 64.0 °F 54.0 °F 70% 29.95 in 10.0 mi NW 9.2 mph - N/A   Overcast
8:15 AM 63.0 °F 52.0 °F 67% 29.96 in 10.0 mi NW 6.9 mph - N/A   Scattered Clouds
8:51 AM 63.0 °F 53.1 °F 70% 29.96 in 10.0 mi North 6.9 mph - N/A   Scattered Clouds
8:58 AM 63.0 °F 53.1 °F 70% 29.97 in 10.0 mi North 5.8 mph - N/A   Mostly Cloudy
9:51 AM 64.9 °F 53.1 °F 65% 29.98 in 10.0 mi North 8.1 mph - N/A   Mostly Cloudy
10:25 AM 64.0 °F 52.0 °F 65% 29.99 in 10.0 mi NNW 6.9 mph - N/A   Mostly Cloudy
10:42 AM 66.9 °F 53.1 °F 61% 29.99 in 10.0 mi Variable 6.9 mph - N/A   Mostly Cloudy
10:51 AM 66.0 °F 52.0 °F 60% 29.98 in 10.0 mi Variable 3.5 mph - N/A   Scattered Clouds
11:51 AM 66.9 °F 52.0 °F 59% 29.98 in 10.0 mi NW 9.2 mph - N/A   Partly Cloudy
12:51 PM 68.0 °F 52.0 °F 56% 29.96 in 10.0 mi West 9.2 mph - N/A   Partly Cloudy
1:51 PM 68.0 °F 53.1 °F 59% 29.94 in 10.0 mi NW 5.8 mph - N/A   Partly Cloudy
2:51 PM 69.1 °F 53.1 °F 57% 29.94 in 10.0 mi WNW 8.1 mph - N/A   Partly Cloudy
3:51 PM 69.1 °F 54.0 °F 58% 29.93 in 10.0 mi West 9.2 mph - N/A   Partly Cloudy
4:51 PM 69.1 °F 53.1 °F 57% 29.92 in 10.0 mi West 8.1 mph - N/A   Partly Cloudy
5:51 PM 69.1 °F 54.0 °F 58% 29.91 in 10.0 mi West 10.4 mph - N/A   Clear
6:51 PM 66.9 °F 55.9 °F 68% 29.91 in 10.0 mi SW 4.6 mph - N/A   Clear
7:51 PM 64.9 °F 55.9 °F 73% 29.90 in 10.0 mi South 3.5 mph - N/A   Clear
8:51 PM 62.1 °F 55.0 °F 78% 29.91 in 10.0 mi SSW 4.6 mph - N/A   Clear
9:51 PM 61.0 °F 53.1 °F 75% 29.90 in 10.0 mi South 5.8 mph - N/A   Clear
10:51 PM 60.1 °F 51.1 °F 72% 29.90 in 10.0 mi South 6.9 mph - N/A   Clear
11:51 PM 60.1 °F 50.0 °F 69% 29.86 in 10.0 mi South 6.9 mph - N/A   Clear